Location: Shepherdstown, WV
(39.4326°N, 77.8042°W)
Time: 22:18:21
(UTC-04:00)

Vanguard 1 Rocket - Pass Details

Date: 06 August 2021
Orbit: 650 x 4226 km, 34.3° (Epoch: 16 September)

Event Time Altitude Azimuth Distance (km) Brightness Sun altitude
Rises 10:55:57 0° 251° (WSW) 8,412 12.1 51.7°
Reaches altitude 10° 11:02:10 10° 250° (WSW) 7,191 11.8 52.8°
Maximum altitude 11:24:42 70° 173° (S) 2,880 11.4 56.5°
Drops below altitude 10° 11:36:33 10° 92° (E) 4,108 11.3 58.3°
Sets 11:39:04 0° 90° (E) 4,768 11.4 58.7°
